User: anonymous   Login
Location: Unspecified
(0.0000°N, 0.0000°E)
Time: 13:58:06
(UTC+02:00)
Language:

Cosmos 1626 Rocket - Orbit

View from above orbital plane
View from above orbital plane
View from above satellite
View from above satellite

Ground track
Ground track

The orbit data is extracted from the following two-line orbital elements,

1 15495U 85009B   14296.76612733  .00000712  00000-0  83838-4 0  9256
2 15495 082.5270 013.4239 0018778 280.7521 079.1580 14.83320142606525
Epoch (UTC): 23 October 2014 18:23:13
Eccentricity: 0.0018778
inclination: 82.5270°
perigee height: 606 km
apogee height: 632 km
right ascension of ascending node: 13.4239°
argument of perigee: 280.7521°
revolutions per day: 14.83320142
mean anomaly at epoch: 79.1580°
orbit number at epoch: 60652

The dashed part of the orbit path shows where the satellite is in the earth's shadow,  

DLR